This demonstration page uses our WeatherBlox Daily Observations layout. Learn more.

Left ArrowRight Arrow

34.74481, -87.66753

Hourly Observations for May 14, 2020

Temp ( °F °C ) Dew Point ( °F °C ) Humidity (%) Winds ( mph kmh ) Pressure ( in mb ) Visibility ( mi km ) Precip ( " mm )
12:53 am 00:53 Clear 67 19.4 56 13.3 68 68 ESE 5 7 30.09 1019 10 16 0.00 0.00
1:53 am 01:53 Clear 65 18.3 57 13.9 76 76 undefined N/A 30.08 1019 10 16 0.00 0.00
2:53 am 02:53 Clear 65 18.3 58 14.4 78 78 SE 5 7 30.08 1019 10 16 0.00 0.00
3:53 am 03:53 Clear 65 18.3 59 15 81 81 SE 6 9 30.09 1019 10 16 0.00 0.00
4:53 am 04:53 Clear 67 19.4 59 15 76 76 SE 7 11 30.11 1020 10 16 0.00 0.00
5:53 am 05:53 Mostly Sunny 65 18.3 59 15 81 81 ESE 5 7 30.13 1020 10 16 0.00 0.00
6:53 am 06:53 Sunny 65 18.3 59 15 81 81 ESE 3 6 30.14 1021 10 16 0.00 0.00
7:53 am 07:53 Sunny 70 21.1 60 15.6 71 71 SE 7 11 30.16 1021 10 16 0.00 0.00
8:53 am 08:53 Sunny 72 22.2 60 15.6 66 66 SSE 12 19 30.17 1022 10 16 0.00 0.00
9:53 am 09:53 Sunny 72 22.2 60 15.6 66 66 SE 7 11 30.18 1022 10 16 0.00 0.00
10:53 am 10:53 Sunny 74 23.3 60 15.6 62 62 S 8 13 30.16 1022 10 16 0.00 0.00
11:53 am 11:53 Mostly Sunny 82 27.8 62 16.7 51 51 S 16 26 30.14 1021 10 16 0.00 0.00
12:53 pm 12:53 Mostly Sunny 83 28.3 62 16.7 49 49 S 18 30 30.11 1020 10 16 0.00 0.00
1:53 pm 13:53 Mostly Sunny 86 30 60 15.6 42 42 S 18 30 30.08 1019 10 16 0.00 0.00
2:53 pm 14:53 Mostly Sunny 86 30 59 15 40 40 SSW 22 35 30.06 1018 10 16 0.00 0.00
3:53 pm 15:53 Sunny 85 29.4 57 13.9 39 39 S 20 31 30.04 1017 10 16 0.00 0.00
4:53 pm 16:53 Sunny 84 28.9 57 13.9 40 40 SSW 17 28 30.02 1017 10 16 0.00 0.00
5:53 pm 17:53 Sunny 83 28.3 57 13.9 41 41 S 14 22 30.03 1017 10 16 0.00 0.00
6:53 pm 18:53 Cloudy 81 27.2 56 13.3 42 42 S 12 19 30.03 1017 10 16 0.00 0.00
7:53 pm 19:53 Mostly Clear 78 25.6 58 14.4 50 50 S 12 19 30.04 1017 10 16 0.00 0.00
8:53 pm 20:53 Clear 76 24.4 57 13.9 52 52 S 10 17 30.04 1017 10 16 0.00 0.00
9:53 pm 21:53 Mostly Cloudy 74 23.3 57 13.9 56 56 SW 7 11 30.05 1018 10 16 0.00 0.00
10:53 pm 22:53 Clear 73 22.8 58 14.4 59 59 S 5 7 30.05 1018 10 16 0.00 0.00
11:53 pm 23:53 Clear 71 21.7 60 15.6 68 68 SE 6 9 30.03 1017 10 16 0.00 0.00

Powered by AerisWeather